Location: Zagreb
(45.8000°N, 16.0000°E)
Time: 20:54:50
(UTC+01:00)

DX 1 - Pass Details

Date: 01 November 2020
Orbit: 619 x 630 km, 98.5° (Epoch: 01 December)

Event Time Altitude Azimuth Distance (km) Brightness Sun altitude
Rises 18:18:25 0° 16° (NNE) 2,911 ? -17.2°
Reaches altitude 10° 18:20:37 10° 19° (NNE) 2,001 ? -17.6°
Maximum altitude 18:24:58 69° 103° (ESE) 669 ? -18.4°
Drops below altitude 10° 18:29:17 10° 187° (S) 1,991 ? -19.1°
Sets 18:31:28 0° 189° (S) 2,895 ? -19.5°
